CW6338 Weather Reports


Display with metric or nautical units.
time (UTC)temp
F
wind
direction
speed
MPH
gust
MPH
rain 1hr
in
rain 24hr
in
rain mn
in
humidity
%
barometer
mb
20260831121736 74 180 6.0 8.0 0.00 0.00 0.00 74 1015.0
20260831120736 74 135 5.0 7.0 0.00 0.00 0.00 74 1014.9
20260831115716 74 180 6.0 10.0 0.00 0.00 0.00 75 1014.7
20260831114716 74 180 8.0 12.0 0.00 0.00 0.00 75 1014.7
20260831113716 74 158 7.0 11.0 0.00 0.00 0.00 76 1014.8
20260831112736 74 158 4.0 7.0 0.00 0.00 0.00 76 1015.0
20260831111716 74 203 5.0 10.0 0.00 0.00 0.00 75 1015.0
20260831110736 74 158 5.0 7.0 0.00 0.00 0.00 75 1014.9
20260831105716 74 180 6.0 11.0 0.00 0.00 0.00 75 1015.0
20260831104716 74 158 6.0 9.0 0.00 0.00 0.00 76 1014.9
20260831103716 74 180 5.0 9.0 0.00 0.00 0.00 76 1014.6
20260831102715 73 180 6.0 11.0 0.00 0.00 0.00 77 1014.7
20260831101716 73 180 3.0 6.0 0.00 0.00 0.00 77 1014.7
20260831100716 73 180 4.0 6.0 0.00 0.00 0.00 77 1014.7
20260831095715 73 158 6.0 10.0 0.00 0.00 0.00 76 1014.8
20260831094715 73 158 6.0 12.0 0.00 0.00 0.00 76 1014.7
20260831093715 74 158 6.0 11.0 0.00 0.00 0.00 76 1014.7
20260831092715 74 158 6.0 8.0 0.00 0.00 0.00 75 1014.8
20260831091716 74 158 6.0 11.0 0.00 0.00 0.00 75 1014.8
20260831090715 74 158 7.0 11.0 0.00 0.00 0.00 75 1014.7
20260831085716 74 158 7.0 12.0 0.00 0.00 0.00 76 1014.8
20260831084715 74 158 5.0 7.0 0.00 0.00 0.00 76 1014.7
20260831083715 74 158 8.0 11.0 0.00 0.00 0.00 76 1014.6
20260831082717 74 158 6.0 10.0 0.00 0.00 0.00 75 1014.6
20260831081717 74 158 6.0 11.0 0.00 0.00 0.00 75 1014.4
20260831080717 75 135 6.0 9.0 0.00 0.00 0.00 74 1014.3
20260831075717 75 158 7.0 12.0 0.00 0.00 0.00 74 1014.3
20260831074717 75 158 6.0 10.0 0.00 0.00 0.00 74 1014.4
20260831073717 75 158 9.0 12.0 0.00 0.00 0.00 74 1014.5
20260831072717 75 158 8.0 15.0 0.00 0.00 0.00 74 1014.5
20260831071717 75 158 8.0 11.0 0.00 0.00 0.00 74 1014.6
20260831070717 75 158 8.0 11.0 0.00 0.00 0.00 73 1014.6
20260831065717 76 158 8.0 12.0 0.00 0.00 0.00 72 1014.5
20260831064737 76 135 9.0 13.0 0.00 0.00 0.00 72 1014.6
20260831063717 76 158 9.0 14.0 0.00 0.00 0.00 72 1014.7
20260831062717 76 158 9.0 12.0 0.00 0.00 0.00 72 1014.5
20260831061737 76 158 9.0 14.0 0.00 0.00 0.00 72 1014.5
20260831060757 76 135 9.0 15.0 0.00 0.00 0.00 72 1014.5
20260831055717 77 158 8.0 14.0 0.00 0.00 0.00 72 1014.5
20260831054717 77 158 9.0 13.0 0.00 0.00 0.00 72 1014.6
20260831053717 77 135 9.0 12.0 0.00 0.00 0.00 72 1014.6
20260831052718 77 158 8.0 16.0 0.00 0.00 0.00 72 1014.6
20260831051737 77 158 9.0 11.0 0.00 0.00 0.00 71 1014.6
20260831050717 78 158 9.0 12.0 0.00 0.00 0.00 71 1014.7
20260831045719 78 135 8.0 11.0 0.00 0.00 0.00 70 1014.6
20260831044717 78 158 10.0 16.0 0.00 0.00 0.00 70 1014.7
20260831043717 78 135 11.0 15.0 0.00 0.00 0.00 70 1014.7
20260831042717 78 158 9.0 12.0 0.00 0.00 0.00 70 1014.8
20260831041717 78 158 10.0 15.0 0.00 0.00 0.00 70 1014.9
20260831040717 78 135 8.0 11.0 0.00 0.00 0.00 70 1014.9
20260831035717 78 158 12.0 15.0 0.00 0.00 0.00 71 1014.9
20260831034717 78 158 10.0 13.0 0.00 0.00 0.00 72 1015.0
20260831033716 78 158 11.0 14.0 0.00 0.00 0.00 72 1015.0
20260831032736 78 158 9.0 12.0 0.00 0.00 0.00 72 1015.0
20260831031717 78 135 7.0 9.0 0.00 0.00 0.00 72 1015.0
20260831030757 79 135 9.0 11.0 0.00 0.00 0.00 72 1015.0
20260831025737 79 158 9.0 12.0 0.00 0.00 0.00 72 1014.9
20260831024716 79 135 7.0 11.0 0.00 0.00 0.00 73 1015.0
20260831023716 79 135 8.0 11.0 0.00 0.00 0.00 74 1014.9
20260831022716 79 135 9.0 12.0 0.00 0.00 0.00 74 1014.8
20260831021736 79 158 8.0 11.0 0.00 0.00 0.00 74 1014.7
20260831020717 79 158 10.0 13.0 0.00 0.00 0.00 74 1014.5
20260831015716 79 135 9.0 13.0 0.00 0.00 0.00 74 1014.3
20260831014716 80 135 9.0 14.0 0.00 0.00 0.00 75 1014.3
20260831013716 80 135 8.0 10.0 0.00 0.00 0.00 74 1014.3
20260831012716 80 135 8.0 10.0 0.00 0.00 0.00 74 1014.1
20260831011716 80 135 8.0 12.0 0.00 0.00 0.00 75 1014.1
20260831010716 80 135 9.0 14.0 0.00 0.00 0.00 76 1014.0
20260831005716 80 135 7.0 9.0 0.00 0.00 0.00 77 1014.0
20260831004716 80 135 8.0 11.0 0.00 0.00 0.00 77 1014.1
20260831003756 81 135 5.0 7.0 0.00 0.00 0.00 76 1014.1
20260831002716 82 135 4.0 5.0 0.00 0.00 0.00 75 1014.2
20260831001716 82 135 4.0 5.0 0.00 0.00 0.00 74 1014.4
20260831000716 83 135 4.0 5.0 0.00 0.00 0.00 74 1014.3
20260830235716 83 135 4.0 7.0 0.00 0.00 0.00 73 1014.3
20260830234736 84 135 5.0 7.0 0.00 0.00 0.00 73 1014.2
20260830233716 85 135 4.0 7.0 0.00 0.00 0.00 72 1014.3
20260830232716 85 135 5.0 8.0 0.00 0.00 0.00 72 1014.4
20260830231736 85 135 6.0 8.0 0.00 0.00 0.00 71 1014.2
20260830230716 86 135 3.0 4.0 0.00 0.00 0.00 70 1014.2
20260830225716 86 135 4.0 7.0 0.00 0.00 0.00 69 1014.2
20260830224756 86 135 4.0 5.0 0.00 0.00 0.00 70 1014.3
20260830223716 87 135 4.0 7.0 0.00 0.00 0.00 69 1014.2
20260830222716 87 158 5.0 7.0 0.00 0.00 0.00 68 1014.3
20260830221716 88 135 5.0 7.0 0.00 0.00 0.00 67 1014.4
20260830220716 87 135 7.0 10.0 0.00 0.00 0.00 67 1014.4
20260830215715 87 135 4.0 5.0 0.00 0.00 0.00 69 1014.5
20260830214716 87 135 5.0 7.0 0.00 0.00 0.00 67 1014.6
20260830213736 88 135 4.0 9.0 0.00 0.00 0.00 66 1014.7
20260830212716 88 135 3.0 5.0 0.00 0.00 0.00 65 1014.9
20260830211715 88 158 3.0 4.0 0.00 0.00 0.00 65 1015.0
20260830210715 89 135 4.0 6.0 0.00 0.00 0.00 62 1015.1
20260830205716 89 135 4.0 6.0 0.00 0.00 0.00 61 1015.2
20260830204716 89 158 6.0 8.0 0.00 0.00 0.00 61 1015.4
20260830203716 88 158 4.0 7.0 0.00 0.00 0.00 64 1015.5
20260830202715 89 158 6.0 10.0 0.00 0.00 0.00 62 1015.4
20260830201715 90 135 4.0 8.0 0.00 0.00 0.00 59 1015.5
20260830200715 89 158 3.0 6.0 0.00 0.00 0.00 62 1015.6
20260830195716 89 180 4.0 6.0 0.00 0.00 0.00 60 1015.6
20260830194715 88 203 3.0 6.0 0.00 0.00 0.00 65 1015.8
20260830193715 88 135 3.0 5.0 0.00 0.00 0.00 64 1015.8
20260830192716 87 0.0 1.0 0.00 0.00 0.00 70 1016.0
20260830191715 86 90 1.0 2.0 0.00 0.00 0.00 69 1015.9
20260830190715 86 0.0 1.0 0.00 0.00 0.00 68 1015.8
20260830185715 86 0.0 0.0 0.00 0.00 0.00 68 1015.9
20260830184715 85 158 1.0 2.0 0.00 0.00 0.00 69 1015.9
20260830183715 84 158 4.0 5.0 0.00 0.00 0.00 68 1015.7
20260830182717 84 180 4.0 5.0 0.00 0.00 0.00 68 1015.7
20260830181717 84 158 5.0 9.0 0.00 0.00 0.00 70 1015.6
20260830180717 83 135 5.0 8.0 0.00 0.00 0.00 73 1015.7
20260830175717 82 158 6.0 9.0 0.00 0.00 0.00 72 1015.6
20260830174717 81 158 6.0 10.0 0.00 0.00 0.00 72 1015.7
20260830173737 81 135 9.0 11.0 0.00 0.00 0.00 71 1015.5
20260830172717 81 158 8.0 12.0 0.00 0.00 0.00 70 1015.7
20260830171718 81 158 10.0 14.0 0.00 0.00 0.00 70 1015.9
20260830170717 81 135 8.0 11.0 0.00 0.00 0.00 70 1015.8
20260830165717 80 158 11.0 16.0 0.00 0.00 0.00 70 1015.7
20260830164717 79 135 6.0 9.0 0.00 0.00 0.00 74 1016.0
20260830163720 78 158 4.0 6.0 0.00 0.00 0.00 73 1016.2
20260830162717 78 135 2.0 3.0 0.00 0.00 0.00 72 1016.6
20260830161717 78 180 4.0 7.0 0.00 0.00 0.00 72 1016.6
20260830160737 79 158 5.0 8.0 0.00 0.00 0.00 72 1016.7
20260830155717 78 180 5.0 9.0 0.00 0.00 0.00 74 1016.7
20260830154717 77 158 4.0 5.0 0.00 0.00 0.00 77 1016.9
20260830153717 77 0.0 1.0 0.00 0.00 0.00 74 1017.1
20260830152717 77 135 1.0 2.0 0.00 0.00 0.00 73 1017.1
20260830151717 76 270 1.0 1.0 0.00 0.00 0.00 73 1017.1
20260830150737 76 225 5.0 10.0 0.00 0.00 0.00 73 1016.6
20260830145717 76 158 2.0 3.0 0.00 0.00 0.00 73 1016.0
20260830144717 76 135 5.0 7.0 0.00 0.00 0.00 72 1015.8
20260830143717 76 158 4.0 8.0 0.00 0.00 0.00 72 1015.5
20260830142716 76 158 7.0 10.0 0.00 0.00 0.00 72 1015.5
20260830141717 75 158 6.0 9.0 0.00 0.00 0.00 74 1015.2
20260830140716 74 158 7.0 12.0 0.00 0.00 0.00 75 1015.1
20260830135716 73 135 8.0 11.0 0.00 0.00 0.00 76 1015.3
20260830134717 73 158 8.0 10.0 0.00 0.00 0.00 76 1015.1
20260830133736 73 158 6.0 8.0 0.00 0.00 0.00 76 1015.3
20260830132717 72 135 5.0 8.0 0.00 0.00 0.00 76 1015.5
20260830131717 72 158 3.0 6.0 0.00 0.00 0.00 76 1015.6
20260830130736 72 135 5.0 7.0 0.00 0.00 0.00 77 1015.5
20260830125736 71 158 5.0 10.0 0.00 0.00 0.00 77 1015.7
20260830124716 71 135 5.0 8.0 0.00 0.00 0.00 78 1015.6
20260830123716 71 158 3.0 6.0 0.00 0.00 0.00 78 1015.5
20260830122716 71 158 7.0 10.0 0.00 0.00 0.00 78 1015.4